Location: ČR
(50.0000°N, 15.0000°E)
Time: 11:06:32
(UTC+02:00)

A-11 Canister half - Pass Details

Date: 24 March 2026
Orbit: 1514 x 1685 km, 47.2° (Epoch: 16 April)

Event Time Altitude Azimuth Distance (km) Brightness Sun altitude
Rises 16:42:03 0° 284° (WNW) 4,887 12.7 14.6°
Reaches altitude 10° 16:45:14 10° 281° (W) 3,915 12.5 14.1°
Maximum altitude 16:54:58 57° 206° (SSW) 1,933 10.1 12.6°
Drops below altitude 10° 17:04:47 10° 132° (SE) 3,939 10.8 11.1°
Sets 17:08:00 0° 128° (SE) 4,918 11.3 10.5°
